CW1620 Weather Reports


time (UTC)temp
C
wind
direction
speed
KPH
gust
KPH
rain 1hr
cm
rain 24hr
cm
rain mn
cm
humidity
%
barometer
mb
20260505165016 26 0.0 0.0 0.00 0.00 0.00 51 1011.5
20260505164016 26 0.0 0.0 0.00 0.00 0.00 50 1011.6
20260505163016 25 0.0 0.0 0.00 0.00 0.00 52 1011.7
20260505162018 25 0.0 0.0 0.00 0.00 0.00 52 1011.8
20260505161017 25 0.0 0.0 0.00 0.00 0.00 53 1011.8
20260505153016 24 0.0 0.0 0.00 0.00 0.00 56 1011.9
20260505152017 24 0.0 0.0 0.00 0.00 0.00 57 1011.9
20260505151016 24 0.0 0.0 0.00 0.00 0.00 56 1012.0
20260505125016 18 0.0 0.0 0.00 0.00 0.00 69 1012.3
20260505124016 18 0.0 0.0 0.00 0.00 0.00 70 1012.3
20260505123016 17 0.0 0.0 0.00 0.00 0.00 69 1012.3
20260505122036 17 0.0 0.0 0.00 0.00 0.00 70 1012.2
20260505121016 17 0.0 0.0 0.00 0.00 0.00 73 1012.1
20260505120016 16 0.0 0.0 0.00 0.00 0.00 75 1012.1
20260505115016 16 0.0 0.0 0.00 0.00 0.00 77 1012.1
20260505114016 16 0.0 0.0 0.00 0.00 0.00 78 1012.0
20260505113016 15 0.0 0.0 0.00 0.00 0.00 82 1011.8
20260505112036 15 0.0 0.0 0.00 0.00 0.00 84 1011.9
20260505111016 14 0.0 0.0 0.00 0.00 0.00 84 1011.8
20260505102016 14 0.0 0.0 0.00 0.00 0.00 82 1011.4
20260505101016 14 0.0 0.0 0.00 0.00 0.00 81 1011.2
20260505100016 14 0.0 0.0 0.00 0.00 0.00 81 1011.1
20260505095016 14 0.0 0.0 0.00 0.00 0.00 81 1011.0
20260505094016 15 0.0 0.0 0.00 0.00 0.00 80 1011.0
20260505093015 15 0.0 0.0 0.00 0.00 0.00 81 1011.0
20260505092015 15 0.0 0.0 0.00 0.00 0.00 80 1011.0
20260505091036 15 0.0 0.0 0.00 0.00 0.00 80 1010.9
20260505090036 15 0.0 0.0 0.00 0.00 0.00 79 1011.0
20260505085016 15 0.0 0.0 0.00 0.00 0.00 78 1010.9
20260505084018 15 0.0 0.0 0.00 0.00 0.00 77 1011.0
20260505083038 15 0.0 0.0 0.00 0.00 0.00 77 1011.0
20260505082018 15 0.0 0.0 0.00 0.00 0.00 77 1011.0
20260505081018 15 0.0 0.0 0.00 0.00 0.00 77 1011.0
20260505080017 15 0.0 0.0 0.00 0.00 0.00 77 1011.1
20260505075018 16 0.0 0.0 0.00 0.00 0.00 76 1011.0
20260505074017 16 0.0 0.0 0.00 0.00 0.00 77 1011.0
20260505073017 16 0.0 0.0 0.00 0.00 0.00 77 1010.9
20260505072017 16 0.0 0.0 0.00 0.00 0.00 78 1010.8
20260505071017 16 0.0 0.0 0.00 0.00 0.00 78 1010.8
20260505070017 16 0.0 0.0 0.00 0.00 0.00 78 1010.8
20260505065018 16 0.0 0.0 0.00 0.00 0.00 78 1010.8
20260505064017 16 0.0 0.0 0.00 0.00 0.00 77 1010.7
20260505063017 16 0.0 0.0 0.00 0.00 0.00 76 1010.9
20260505062017 16 0.0 0.0 0.00 0.00 0.00 75 1010.8
20260505061037 16 0.0 0.0 0.00 0.00 0.00 75 1010.8
20260505060017 16 0.0 0.0 0.00 0.00 0.00 75 1010.9
20260505055017 16 0.0 0.0 0.00 0.00 0.00 76 1010.9
20260505054017 16 0.0 0.0 0.00 0.00 0.00 77 1010.8
20260505053017 16 0.0 0.0 0.00 0.00 0.00 78 1010.9
20260505052017 16 0.0 0.0 0.00 0.00 0.00 79 1010.9
20260505051017 15 0.0 0.0 0.00 0.00 0.00 79 1010.8
20260505041017 15 0.0 0.0 0.00 0.00 0.00 71 1010.6
20260505040017 15 0.0 0.0 0.00 0.00 0.00 70 1010.6
20260505035016 15 0.0 0.0 0.00 0.00 0.00 68 1010.5
20260505034037 15 0.0 0.0 0.00 0.00 0.00 68 1010.6
20260505033016 16 0.0 0.0 0.00 0.00 0.00 66 1010.6
20260505032016 16 0.0 0.0 0.00 0.00 0.00 67 1010.8
20260505031016 16 0.0 0.0 0.00 0.00 0.00 66 1010.7
20260505030016 16 0.0 0.0 0.00 0.00 0.00 66 1010.7
20260505025016 16 0.0 0.0 0.00 0.00 0.00 65 1010.6
20260505024016 16 0.0 0.0 0.00 0.00 0.00 65 1010.7
20260505023016 16 0.0 0.0 0.00 0.00 0.00 64 1010.7
20260505022016 16 0.0 0.0 0.00 0.00 0.00 64 1010.7
20260505021036 16 0.0 0.0 0.00 0.00 0.00 62 1010.7
20260505020016 16 0.0 0.0 0.00 0.00 0.00 62 1010.6
20260505015016 17 0.0 0.0 0.00 0.00 0.00 61 1010.6
20260505014016 17 0.0 0.0 0.00 0.00 0.00 61 1010.5
20260505013016 17 0.0 0.0 0.00 0.00 0.00 60 1010.5
20260505012036 17 0.0 0.0 0.00 0.00 0.00 59 1010.3
20260505011016 17 0.0 0.0 0.00 0.00 0.00 58 1010.3
20260505010016 17 0.0 0.0 0.00 0.00 0.00 57 1010.2
20260505005015 17 0.0 0.0 0.00 0.00 0.00 56 1010.2
20260505004016 18 0.0 0.0 0.00 0.00 0.00 55 1010.1
20260505003017 18 0.0 0.0 0.00 0.00 0.00 55 1010.1
20260505002036 18 0.0 0.0 0.00 0.00 0.00 54 1010.0
20260505001016 18 0.0 0.0 0.00 0.00 0.00 53 1010.0
20260505000016 19 0.0 0.0 0.00 0.00 0.00 54 1010.0
20260504235015 19 0.0 0.0 0.00 0.00 0.00 51 1010.0
20260504234016 20 0.0 0.0 0.00 0.00 0.00 50 1010.0
20260504233016 20 0.0 0.0 0.00 0.00 0.00 50 1009.9
20260504232016 20 0.0 0.0 0.00 0.00 0.00 51 1010.1
20260504231015 20 0.0 0.0 0.00 0.00 0.00 49 1010.1
20260504230016 21 0.0 0.0 0.00 0.00 0.00 51 1010.0
20260504225018 21 0.0 0.0 0.00 0.00 0.00 49 1009.9
20260504224018 21 0.0 0.0 0.00 0.00 0.00 47 1010.0
20260504223017 22 0.0 0.0 0.00 0.00 0.00 50 1010.0
20260504222018 22 0.0 0.0 0.00 0.00 0.00 46 1010.0
20260504221038 22 0.0 0.0 0.00 0.00 0.00 45 1010.0
20260504220018 22 0.0 0.0 0.00 0.00 0.00 48 1010.0
20260504215017 22 0.0 0.0 0.00 0.00 0.00 46 1010.0
20260504214017 22 0.0 0.0 0.00 0.00 0.00 42 1010.1
20260504213018 22 0.0 0.0 0.00 0.00 0.00 42 1010.1
20260504212018 23 0.0 0.0 0.00 0.00 0.00 44 1010.2
20260504211017 23 0.0 0.0 0.00 0.00 0.00 41 1010.1
20260504210017 23 0.0 0.0 0.00 0.00 0.00 41 1010.2
20260504205017 23 0.0 0.0 0.00 0.00 0.00 41 1010.4
20260504204017 23 0.0 0.0 0.00 0.00 0.00 40 1010.3
20260504203018 23 0.0 0.0 0.00 0.00 0.00 40 1010.3
20260504202017 23 0.0 0.0 0.00 0.00 0.00 39 1010.5
20260504201017 23 0.0 0.0 0.00 0.00 0.00 41 1010.6
20260504200017 23 0.0 0.0 0.00 0.00 0.00 41 1010.9
20260504195017 23 0.0 0.0 0.00 0.00 0.00 40 1011.0
20260504194017 23 0.0 0.0 0.00 0.00 0.00 44 1011.2
20260504193018 23 0.0 0.0 0.00 0.00 0.00 39 1011.4
20260504192017 23 0.0 0.0 0.00 0.00 0.00 39 1011.5
20260504191017 23 0.0 0.0 0.00 0.00 0.00 41 1011.6
20260504190017 23 0.0 0.0 0.00 0.00 0.00 40 1011.7
20260504185017 23 0.0 0.0 0.00 0.00 0.00 39 1011.8
20260504184017 23 0.0 0.0 0.00 0.00 0.00 38 1011.9
20260504183017 23 0.0 0.0 0.00 0.00 0.00 41 1011.9
20260504182017 22 0.0 0.0 0.00 0.00 0.00 40 1012.0
20260504181037 22 0.0 0.0 0.00 0.00 0.00 43 1012.2
20260504180017 22 0.0 0.0 0.00 0.00 0.00 41 1012.4
20260504175017 22 0.0 0.0 0.00 0.00 0.00 42 1012.4
20260504174017 22 0.0 0.0 0.00 0.00 0.00 43 1012.5
20260504173037 22 0.0 0.0 0.00 0.00 0.00 42 1012.7
20260504172017 22 0.0 0.0 0.00 0.00 0.00 43 1012.7
20260504171017 22 0.0 0.0 0.00 0.00 0.00 41 1013.0